When you browse on this site, cookies collect data to enhance your experience and personalize the content and advertising you see.
Visit our Privacy Policy to learn more. By continuing to use the site, you agree to this use of cookies and data.
  • In Czech Republic
  • List of Countries
  • For 7 days
  • Water Temperature
  • Satellite Maps
  • Weather Map
  • Weather Widgets
  • user-avatar
    Login

    Hourly Weather Tema

    Today, 16 December, Sunday

    Time Temperature Precipitation Wind Pressure Humidity
    00:00 +29°C° 0 mm 3 mps 759 mmHg 82%
    01:00 +29°C° 0 mm 4 mps 758 mmHg 82%
    02:00 +29°C° 0 mm 4 mps 758 mmHg 83%
    03:00 +28°C° 0 mm 4 mps 758 mmHg 83%
    04:00 +28°C° 0 mm 4 mps 758 mmHg 84%
    05:00 +28°C° 0 mm 4 mps 758 mmHg 85%
    06:00 +28°C° 0 mm 4 mps 758 mmHg 86%
    07:00 +29°C° 0 mm 4 mps 759 mmHg 77%
    08:00 +31°C° 0 mm 3 mps 759 mmHg 69%
    09:00 +33°C° 0 mm 3 mps 759 mmHg 60%
    10:00 +35°C° 0 mm 3 mps 759 mmHg 52%
    11:00 +37°C° 0 mm 4 mps 759 mmHg 43%
    12:00 +40°C° 0 mm 4 mps 758 mmHg 35%
    13:00 +40°C° 0 mm 4 mps 758 mmHg 36%
    14:00 +40°C° 0 mm 5 mps 757 mmHg 37%
    15:00 +40°C° 0 mm 5 mps 757 mmHg 37%
    16:00 +37°C° 0 mm 5 mps 757 mmHg 48%
    17:00 +35°C° 0 mm 5 mps 757 mmHg 58%
    18:00 +33°C° 0 mm 6 mps 757 mmHg 69%
    19:00 +32°C° 0 mm 6 mps 758 mmHg 70%
    20:00 +32°C° 0 mm 6 mps 758 mmHg 72%
    21:00 +30°C° 0 mm 6 mps 759 mmHg 73%
    22:00 +30°C° 0 mm 5 mps 759 mmHg 75%
    23:00 +30°C° 0 mm 5 mps 759 mmHg 77%

    Tomorrow, 17 December, Monday

    Time Temperature Precipitation Wind Pressure Humidity
    00:00 +29°C° 0 mm 5 mps 759 mmHg 79%
    01:00 +29°C° 0 mm 4 mps 758 mmHg 81%
    02:00 +29°C° 0 mm 4 mps 758 mmHg 82%
    03:00 +28°C° 0 mm 4 mps 757 mmHg 84%
    04:00 +29°C° 0 mm 4 mps 758 mmHg 82%
    05:00 +29°C° 0 mm 5 mps 758 mmHg 80%
    06:00 +29°C° 0 mm 5 mps 758 mmHg 78%
    07:00 +30°C° 0 mm 4 mps 758 mmHg 73%
    08:00 +32°C° 0 mm 4 mps 759 mmHg 68%
    09:00 +33°C° 0 mm 4 mps 759 mmHg 63%
    10:00 +35°C° 0 mm 4 mps 759 mmHg 57%
    11:00 +36°C° 0 mm 3 mps 758 mmHg 50%
    12:00 +38°C° 0 mm 3 mps 758 mmHg 44%
    13:00 +38°C° 0 mm 4 mps 758 mmHg 43%
    14:00 +38°C° 0 mm 4 mps 757 mmHg 41%
    15:00 +38°C° 0 mm 4 mps 756 mmHg 40%
    16:00 +37°C° 0 mm 5 mps 757 mmHg 46%
    17:00 +35°C° 0 mm 5 mps 757 mmHg 53%
    18:00 +34°C° 0 mm 5 mps 757 mmHg 59%
    19:00 +33°C° 0 mm 5 mps 757 mmHg 65%
    20:00 +32°C° 0 mm 5 mps 758 mmHg 70%
    21:00 +30°C° 0 mm 5 mps 759 mmHg 76%
    22:00 +30°C° 0 mm 5 mps 758 mmHg 78%
    23:00 +30°C° 0 mm 5 mps 758 mmHg 80%

    Day after tomorrow, 18 December, Tuesday

    Time Temperature Precipitation Wind Pressure Humidity
    00:00 +29°C° 0 mm 5 mps 758 mmHg 81%
    01:00 +29°C° 0 mm 5 mps 758 mmHg 83%
    02:00 +28°C° 0 mm 5 mps 757 mmHg 84%
    03:00 +28°C° 0 mm 5 mps 757 mmHg 86%
    04:00 +28°C° 0 mm 5 mps 757 mmHg 86%
    05:00 +28°C° 0 mm 5 mps 757 mmHg 86%
    06:00 +28°C° 0 mm 5 mps 757 mmHg 87%
    07:00 +29°C° 0 mm 5 mps 758 mmHg 79%
    08:00 +32°C° 0 mm 5 mps 759 mmHg 71%
    09:00 +33°C° 0 mm 5 mps 759 mmHg 64%
    10:00 +34°C° 0 mm 4 mps 759 mmHg 58%
    11:00 +36°C° 0 mm 4 mps 758 mmHg 51%
    12:00 +37°C° 0 mm 4 mps 758 mmHg 45%
    13:00 +37°C° 0 mm 5 mps 757 mmHg 46%
    14:00 +38°C° 0 mm 6 mps 757 mmHg 47%
    15:00 +38°C° 0 mm 6 mps 756 mmHg 47%
    16:00 +36°C° 0 mm 6 mps 756 mmHg 54%
    17:00 +34°C° 0 mm 6 mps 757 mmHg 61%
    18:00 +33°C° 0 mm 7 mps 757 mmHg 67%
    19:00 +32°C° 0 mm 7 mps 757 mmHg 70%
    20:00 +32°C° 0 mm 7 mps 758 mmHg 72%
    21:00 +30°C° 0 mm 7 mps 759 mmHg 74%
    22:00 +30°C° 0 mm 7 mps 759 mmHg 76%
    23:00 +29°C° 0 mm 7 mps 758 mmHg 77%

    19 December, Wednesday

    Time Temperature Precipitation Wind Pressure Humidity
    00:00 +29°C° 0 mm 7 mps 758 mmHg 78%
    01:00 +29°C° 0.2 mm 7 mps 758 mmHg 80%
    02:00 +28°C° 0.2 mm 6 mps 758 mmHg 82%
    03:00 +28°C° 0.2 mm 6 mps 757 mmHg 84%
    04:00 +28°C° 0 mm 6 mps 757 mmHg 85%
    05:00 +28°C° 0 mm 6 mps 758 mmHg 86%
    06:00 +27°C° 0 mm 6 mps 758 mmHg 87%
    07:00 +29°C° 0.3 mm 5 mps 759 mmHg 79%
    08:00 +32°C° 0.3 mm 5 mps 759 mmHg 71%
    09:00 +33°C° 0.3 mm 4 mps 760 mmHg 63%
    10:00 +35°C° 0.1 mm 4 mps 759 mmHg 58%
    11:00 +36°C° 0.1 mm 4 mps 759 mmHg 52%
    12:00 +37°C° 0.1 mm 4 mps 758 mmHg 46%
    13:00 +37°C° 0.1 mm 5 mps 757 mmHg 47%
    14:00 +36°C° 0.1 mm 5 mps 757 mmHg 48%
    15:00 +36°C° 0.1 mm 5 mps 756 mmHg 48%
    16:00 +35°C° 0 mm 5 mps 756 mmHg 55%
    17:00 +34°C° 0 mm 6 mps 757 mmHg 61%
    18:00 +33°C° 0 mm 6 mps 757 mmHg 68%
    19:00 +32°C° 0 mm 6 mps 758 mmHg 70%
    20:00 +30°C° 0 mm 6 mps 758 mmHg 73%
    21:00 +30°C° 0 mm 6 mps 759 mmHg 76%
    22:00 +29°C° 0 mm 6 mps 758 mmHg 78%
    23:00 +29°C° 0 mm 6 mps 758 mmHg 80%

    20 December, Thursday

    Time Temperature Precipitation Wind Pressure Humidity
    00:00 +29°C° 0 mm 6 mps 758 mmHg 81%
    01:00 +28°C° 0 mm 6 mps 757 mmHg 83%
    02:00 +28°C° 0 mm 6 mps 757 mmHg 84%
    03:00 +28°C° 0 mm 6 mps 757 mmHg 86%
    04:00 +28°C° 0 mm 5 mps 757 mmHg 87%
    05:00 +27°C° 0 mm 5 mps 757 mmHg 87%
    06:00 +27°C° 0 mm 5 mps 758 mmHg 88%
    07:00 +29°C° 0.2 mm 4 mps 758 mmHg 80%
    08:00 +30°C° 0.2 mm 4 mps 759 mmHg 73%
    09:00 +33°C° 0.2 mm 4 mps 759 mmHg 65%
    10:00 +34°C° 0.5 mm 4 mps 759 mmHg 60%
    11:00 +35°C° 0.5 mm 4 mps 758 mmHg 55%
    12:00 +36°C° 0.5 mm 4 mps 758 mmHg 50%
    13:00 +36°C° 0.1 mm 4 mps 757 mmHg 50%
    14:00 +36°C° 0.1 mm 4 mps 757 mmHg 49%
    15:00 +36°C° 0.1 mm 4 mps 756 mmHg 49%
    16:00 +35°C° 0.1 mm 5 mps 756 mmHg 54%
    17:00 +34°C° 0.1 mm 5 mps 757 mmHg 59%
    18:00 +33°C° 0.1 mm 5 mps 757 mmHg 64%
    19:00 +32°C° 0 mm 5 mps 757 mmHg 67%
    20:00 +30°C° 0 mm 5 mps 758 mmHg 70%
    21:00 +30°C° 0 mm 6 mps 758 mmHg 73%
    22:00 +29°C° 0 mm 6 mps 758 mmHg 75%
    23:00 +29°C° 0 mm 6 mps 758 mmHg 77%

    21 December, Friday

    Time Temperature Precipitation Wind Pressure Humidity
    00:00 +29°C° 0 mm 6 mps 758 mmHg 79%
    01:00 +29°C° 0 mm 6 mps 757 mmHg 81%
    02:00 +28°C° 0 mm 5 mps 757 mmHg 83%
    03:00 +28°C° 0 mm 5 mps 757 mmHg 85%
    04:00 +28°C° 0 mm 5 mps 757 mmHg 86%
    05:00 +27°C° 0 mm 5 mps 757 mmHg 87%
    06:00 +27°C° 0 mm 5 mps 757 mmHg 88%
    07:00 +29°C° 0.4 mm 4 mps 758 mmHg 81%
    08:00 +30°C° 0.4 mm 4 mps 758 mmHg 73%
    09:00 +33°C° 0.4 mm 3 mps 759 mmHg 66%
    10:00 +33°C° 0.5 mm 3 mps 758 mmHg 61%
    11:00 +34°C° 0.5 mm 3 mps 758 mmHg 56%
    12:00 +35°C° 0.5 mm 3 mps 757 mmHg 52%
    13:00 +36°C° 0 mm 4 mps 757 mmHg 50%
    14:00 +36°C° 0 mm 4 mps 756 mmHg 49%
    15:00 +36°C° 0 mm 5 mps 756 mmHg 48%
    16:00 +35°C° 0 mm 5 mps 756 mmHg 53%
    17:00 +34°C° 0 mm 4 mps 756 mmHg 59%
    18:00 +32°C° 0 mm 4 mps 756 mmHg 64%
    19:00 +32°C° 0 mm 4 mps 757 mmHg 67%
    20:00 +30°C° 0 mm 5 mps 757 mmHg 70%
    21:00 +30°C° 0 mm 5 mps 758 mmHg 72%
    22:00 +29°C° 0 mm 5 mps 758 mmHg 74%
    23:00 +29°C° 0 mm 5 mps 757 mmHg 76%
    Show more